Location: Unspecified
(38.6830°S, 0.0000°E)
Time: 03:55:24
(UTC+00:00)

Envisat - Pass Details

Date: 05 June 2019
Orbit: 764 x 766 km, 98.1° (Epoch: 19 June)

Event Time Altitude Azimuth Distance (km) Brightness Sun altitude
Exits shadow 18:40:50 21° 38° (NE) 1,662 4.5 -21.9°
Drops below altitude 10° 18:42:55 10° 21° (NNE) 2,307 5.4 -22.3°
Sets 18:45:26 0° 11° (N) 3,224 6.2 -22.7°
